Flag for Spain Weather past 2 weeks in Gijón, Spain

Now
59 °F

Clear.


Feels Like: 59 °F
Forecast: 60 / 76 °F
Wind: 1 mph from North

Location: Asturias / Aviles

Current Time: Aug 2, 2015 at 6:39:29 AM

Latest Report: Aug 2, 2015 at 6:00 AM


Visibility: 10 mi

Pressure: 29.89 "Hg

Humidity: 94%

Dew point: 57 °F

Location of GijónLocation

Historic Weather in Gijón — Graph

°F

Gijón temperature yesterday

Maximum temperature yesterday: 72 °F (at 2:00 PM)
Minimum temperature yesterday: 54 °F (at 5:30 AM)
Average temperature yesterday: 64 °F

Past Weeks' High & Low Weather Summary

 TemperatureHumidityPressure
High84 °F (Jul 19, 5:30 PM)100% (Jul 18, 6:00 AM)30.21 "Hg (Jul 18, 6:00 AM)
Low54 °F (Aug 1, 5:30 AM)45% (Jul 19, 5:00 PM)29.83 "Hg (Jul 31, 8:00 AM)
Average67 °F83%30.04 "Hg
* Reported Jul 18 2:00 AM — Aug 2 2:30 AM, Gijón, Weather by CustomWeather, © 2015

Note: Actual official high and low records may vary slightly from our data, if they occured in-between our weather recording intervals... More about our weather records

Advertising

Gijón weather history for previous 24 hours

 ConditionsComfort  
Time TempWeatherWind HumidityBarometerVisibility
2:30 AM
Sun, Aug 2
59 °FClear.3 mph94%29.98 "Hg6 mi
2:00 AM59 °FClear.3 mph94%29.98 "Hg6 mi
1:30 AM61 °FClear.2 mph88%29.98 "Hg6 mi
1:00 AM61 °FClear.1 mph88%29.98 "Hg10 mi
12:00 AM63 °FClear.5 mph83%30.01 "Hg10 mi
11:30 PM
Sat, Aug 1
63 °FPassing clouds.5 mph88%30.01 "HgN/A
11:00 PM63 °FPassing clouds.7 mph88%30.01 "HgN/A
10:30 PM64 °FSunny.3 mph83%30.01 "Hg10 mi
10:00 PM64 °FSunny.7 mph78%30.01 "Hg10 mi
9:30 PM66 °FSunny.7 mph78%30.01 "Hg10 mi
9:00 PM66 °FPassing clouds.8 mph78%30.01 "HgN/A
8:30 PM68 °FPassing clouds.14 mph73%30.01 "HgN/A
8:00 PM68 °FPassing clouds.12 mph69%30.01 "HgN/A
7:30 PM70 °FPassing clouds.10 mph69%30.01 "HgN/A
7:00 PM70 °FPassing clouds.14 mph64%30.01 "HgN/A
6:30 PM70 °FPassing clouds.13 mph60%30.04 "HgN/A
6:00 PM70 °FPassing clouds.12 mph64%30.04 "HgN/A
5:00 PM70 °FPassing clouds.10 mph64%30.04 "HgN/A
4:30 PM72 °FPassing clouds.10 mph61%30.04 "HgN/A
4:00 PM72 °FPassing clouds.12 mph57%30.04 "HgN/A
3:30 PM72 °FPassing clouds.8 mph61%30.04 "HgN/A
3:00 PM72 °FPassing clouds.10 mph57%30.04 "HgN/A
2:30 PM70 °FPassing clouds.9 mph69%30.04 "HgN/A
2:00 PM72 °FPassing clouds.9 mph61%30.07 "HgN/A
1:30 PM68 °FScattered clouds.8 mph69%30.07 "HgN/A
1:00 PM68 °FScattered clouds.3 mph69%30.07 "HgN/A
12:30 PM70 °FPassing clouds.6 mph60%30.07 "HgN/A
12:00 PM70 °FPassing clouds.9 mph64%30.07 "HgN/A
11:30 AM68 °FPassing clouds.9 mph64%30.07 "HgN/A
11:00 AM66 °FPassing clouds.7 mph68%30.07 "HgN/A
10:30 AM66 °FPassing clouds.2 mph73%30.07 "HgN/A
10:00 AM61 °FPassing clouds.6 mph83%30.07 "HgN/A
9:30 AM59 °FPassing clouds.5 mph82%30.07 "HgN/A
9:00 AM57 °FPassing clouds.6 mph88%30.07 "HgN/A
8:30 AM57 °FPassing clouds.6 mph88%30.04 "HgN/A
8:00 AM55 °FPassing clouds.6 mph88%30.07 "HgN/A
7:00 AM55 °FPassing clouds.5 mph88%30.04 "HgN/A
6:30 AM54 °FPassing clouds.7 mph94%30.04 "HgN/A
6:00 AM55 °FPassing clouds.5 mph94%30.04 "HgN/A
Weather by CustomWeather, © 2015

See weather overviewHow to use our weather pages